Canby, MN

12:59 AM CST on December 13, 2017 (GMT -0600)
Canby

Weather History for KCNB - August, 2013

Change the Weather History Date:

Saturday, August 3, 2013

  Actual Average (KMML) Record (KMML)
Temperature  
Mean Temperature 64 °F -  
Max Temperature 78 °F 79 °F 99 °F (1955)
Min Temperature 50 °F 59 °F 43 °F (1971)
Degree Days  
Heating Degree Days 2    
Growing Degree Days 14 (Base 50)    
Moisture  
Dew Point 51 °F    
Average Humidity 68    
Maximum Humidity 95    
Minimum Humidity 35    
Precipitation  
Precipitation 0.00 in - - ()
Sea Level Pressure  
Sea Level Pressure 30.18 in    
Wind  
Wind Speed 4 mph (NW)    
Max Wind Speed 9 mph    
Max Gust Speed -    
Visibility 10 miles    
Events      
Averages and records for this station are not official NWS values.
T = Trace of Precipitation, MM = Missing Value Source: NWS Daily Summary

Daily Weather History Graph

Daily Weather History Graph

Search for Another Location

Airport or City:

Trip Planner

Search our weather history database for the weather conditions in past years. The results will help you decide how hot, cold, wet, or windy it might be!

Date:

Astronomy

Aug. 03, 2013 Rise Set
Actual Time 6:13 AM CDT 8:47 PM CDT
Civil Twilight 5:40 AM CDT 9:20 PM CDT
Nautical Twilight 4:58 AM CDT 10:02 PM CDT
Astronomical Twilight 4:11 AM CDT 10:49 PM CDT
Moon 3:22 AM CDT (8/3) 6:32 PM CDT (8/3)
Length of Visible Light 15h 40m
Length of Day
14h 34m
Waning Crescent, 9% of the Moon is Illuminated
Aug 3
Waning Crescent
Aug 6
New
Aug 14
First Quarter
Aug 20
Full
Aug 28
Last Quarter

Hourly Weather History & Observations

Time (CDT) Temp. Dew Point Humidity Pressure Visibility Wind Dir Wind Speed Gust Speed Precip Events Conditions
12:14 AM 54.7 °F 52.2 °F 91% 30.11 in 10.0 mi West 3.5 mph - N/A   Clear
12:34 AM 52.9 °F 50.9 °F 93% 30.11 in 10.0 mi WSW 3.5 mph - N/A   Clear
12:54 AM 53.6 °F 51.6 °F 93% 30.11 in 10.0 mi West 3.5 mph - N/A   Clear
1:14 AM 52.9 °F 50.2 °F 91% 30.12 in 10.0 mi West 3.5 mph - N/A   Clear
1:34 AM 53.2 °F 50.7 °F 91% 30.12 in 10.0 mi West 3.5 mph - N/A   Clear
1:54 AM 53.1 °F 50.9 °F 92% 30.12 in 10.0 mi WSW 4.6 mph - N/A   Clear
2:14 AM 53.1 °F 50.4 °F 91% 30.12 in 10.0 mi West 3.5 mph - N/A   Clear
2:34 AM 53.1 °F 50.2 °F 90% 30.12 in 10.0 mi West 4.6 mph - N/A   Clear
2:54 AM 51.1 °F 48.9 °F 92% 30.12 in 10.0 mi West 4.6 mph - N/A   Clear
3:14 AM 50.0 °F 48.2 °F 94% 30.13 in 10.0 mi West 3.5 mph - N/A   Clear
3:34 AM 50.2 °F 48.7 °F 95% 30.13 in 10.0 mi West 4.6 mph - N/A   Clear
3:54 AM 51.1 °F 49.3 °F 94% 30.13 in 10.0 mi Calm Calm - N/A   Clear
4:14 AM 51.1 °F 49.1 °F 93% 30.13 in 10.0 mi West 3.5 mph - N/A   Clear
4:35 AM 51.3 °F 49.1 °F 92% 30.14 in 10.0 mi West 4.6 mph - N/A   Clear
4:54 AM 50.9 °F 48.6 °F 92% 30.14 in 10.0 mi West 4.6 mph - N/A   Clear
5:14 AM 51.3 °F 48.9 °F 92% 30.14 in 10.0 mi West 4.6 mph - N/A   Clear
5:35 AM 50.5 °F 48.4 °F 92% 30.15 in 10.0 mi West 4.6 mph - N/A   Clear
5:54 AM 50.7 °F 48.4 °F 92% 30.15 in 10.0 mi West 5.8 mph - N/A   Clear
6:14 AM 51.1 °F 48.6 °F 91% 30.16 in 10.0 mi WSW 5.8 mph - N/A   Clear
6:35 AM 51.6 °F 48.6 °F 89% 30.16 in 10.0 mi West 4.6 mph - N/A   Clear
6:54 AM 52.7 °F 49.5 °F 89% 30.17 in 10.0 mi West 4.6 mph - N/A   Clear
7:14 AM 54.0 °F 50.5 °F 88% 30.18 in 10.0 mi West 4.6 mph - N/A   Clear
7:34 AM 56.7 °F 52.5 °F 86% 30.19 in 10.0 mi Calm Calm - N/A   Clear
7:54 AM 59.0 °F 53.1 °F 81% 30.19 in 10.0 mi NW 3.5 mph - N/A   Clear
8:14 AM 60.4 °F 53.6 °F 78% 30.19 in 10.0 mi NW 3.5 mph - N/A   Clear
8:34 AM 61.0 °F 53.8 °F 77% 30.19 in 10.0 mi Calm Calm - N/A   Clear
8:55 AM 62.6 °F 53.8 °F 73% 30.19 in 10.0 mi NW 3.5 mph - N/A   Clear
9:14 AM 63.0 °F 54.1 °F 73% 30.19 in 10.0 mi NW 3.5 mph - N/A   Clear
9:34 AM 63.5 °F 53.6 °F 70% 30.20 in 10.0 mi NW 3.5 mph - N/A   Clear
9:54 AM 64.4 °F 54.3 °F 70% 30.20 in 10.0 mi NW 4.6 mph - N/A   Clear
10:15 AM 65.3 °F 54.3 °F 68% 30.21 in 10.0 mi NNW 5.8 mph - N/A   Clear
10:34 AM 66.4 °F 54.9 °F 66% 30.21 in 10.0 mi WNW 3.5 mph - N/A   Clear
10:54 AM 67.3 °F 54.7 °F 64% 30.21 in 10.0 mi NW 4.6 mph - N/A   Clear
11:14 AM 68.9 °F 54.1 °F 59% 30.20 in 10.0 mi NW 3.5 mph - N/A   Clear
11:34 AM 71.6 °F 52.5 °F 51% 30.20 in 10.0 mi North 5.8 mph - N/A   Clear
11:54 AM 71.6 °F 52.9 °F 52% 30.21 in 10.0 mi NNE 4.6 mph - N/A   Clear
12:14 PM 72.9 °F 50.9 °F 46% 30.21 in 10.0 mi North 5.8 mph - N/A   Clear
12:35 PM 73.9 °F 49.6 °F 42% 30.21 in 10.0 mi North 5.8 mph - N/A   Clear
12:54 PM 74.3 °F 49.3 °F 41% 30.21 in 10.0 mi North 4.6 mph - N/A   Clear
1:15 PM 75.4 °F 50.2 °F 41% 30.22 in 10.0 mi NE 5.8 mph - N/A   Clear
1:34 PM 76.1 °F 50.4 °F 40% 30.22 in 10.0 mi North 5.8 mph - N/A   Scattered Clouds
1:54 PM 75.6 °F 50.9 °F 42% 30.21 in 10.0 mi North 5.8 mph - N/A   Scattered Clouds
2:14 PM 75.2 °F 51.8 °F 44% 30.21 in 10.0 mi NNE 5.8 mph - N/A   Mostly Cloudy
2:34 PM 75.2 °F 51.4 °F 43% 30.21 in 10.0 mi NE 8.1 mph - N/A   Mostly Cloudy
2:54 PM 77.5 °F 50.2 °F 38% 30.20 in 10.0 mi North 5.8 mph - N/A   Scattered Clouds
3:14 PM 77.9 °F 48.4 °F 35% 30.20 in 10.0 mi NNW 6.9 mph - N/A   Scattered Clouds
3:34 PM 77.2 °F 49.8 °F 38% 30.20 in 10.0 mi North 9.2 mph - N/A   Scattered Clouds
3:54 PM 75.0 °F 50.9 °F 43% 30.20 in 10.0 mi North 5.8 mph - N/A   Mostly Cloudy
4:14 PM 77.0 °F 49.3 °F 38% 30.20 in 10.0 mi NNW 8.1 mph - N/A   Scattered Clouds
4:34 PM 77.4 °F 50.4 °F 39% 30.20 in 10.0 mi North 6.9 mph - N/A   Scattered Clouds
4:54 PM 77.9 °F 50.5 °F 38% 30.20 in 10.0 mi North 8.1 mph - N/A   Clear
5:14 PM 76.1 °F 51.4 °F 42% 30.20 in 10.0 mi NNE 5.8 mph - N/A   Scattered Clouds
5:34 PM 76.1 °F 50.9 °F 41% 30.20 in 10.0 mi North 9.2 mph - N/A   Scattered Clouds
5:54 PM 76.5 °F 50.2 °F 40% 30.19 in 10.0 mi NNE 8.1 mph - N/A   Clear
6:14 PM 75.9 °F 50.9 °F 41% 30.19 in 10.0 mi NNE 6.9 mph - N/A   Scattered Clouds
6:34 PM 75.7 °F 49.8 °F 40% 30.19 in 10.0 mi North 6.9 mph - N/A   Scattered Clouds
6:54 PM 74.8 °F 50.4 °F 42% 30.19 in 10.0 mi North 8.1 mph - N/A   Clear
7:14 PM 74.1 °F 50.9 °F 44% 30.19 in 10.0 mi North 5.8 mph - N/A   Clear
7:34 PM 72.9 °F 51.6 °F 47% 30.19 in 10.0 mi North 4.6 mph - N/A   Clear
7:54 PM 71.6 °F 52.2 °F 50% 30.20 in 10.0 mi North 3.5 mph - N/A   Clear
8:14 PM 69.8 °F 52.7 °F 54% 30.20 in 10.0 mi North 3.5 mph - N/A   Clear
8:35 PM 68.0 °F 52.9 °F 58% 30.19 in 10.0 mi North 3.5 mph - N/A   Clear
8:54 PM 66.2 °F 52.9 °F 62% 30.19 in 10.0 mi North 3.5 mph - N/A   Clear
9:14 PM 65.1 °F 52.3 °F 63% 30.20 in 10.0 mi Calm Calm - N/A   Clear
9:34 PM 63.3 °F 53.6 °F 71% 30.21 in 10.0 mi Calm Calm - N/A   Clear
9:54 PM 60.6 °F 55.0 °F 82% 30.21 in 10.0 mi Calm Calm - N/A   Clear
10:14 PM 59.7 °F 53.8 °F 81% 30.22 in 10.0 mi WSW 3.5 mph - N/A   Clear
10:33 PM 57.0 °F 52.7 °F 85% 30.23 in 10.0 mi West 3.5 mph - N/A   Clear
10:54 PM 55.4 °F 52.0 °F 88% 30.23 in 10.0 mi Calm Calm - N/A   Clear
11:14 PM 55.6 °F 52.5 °F 89% 30.23 in 10.0 mi WSW 3.5 mph - N/A   Clear
11:34 PM 55.4 °F 51.8 °F 88% 30.24 in 10.0 mi WSW 3.5 mph - N/A   Clear
11:54 PM 54.3 °F 51.3 °F 89% 30.23 in 10.0 mi Calm Calm - N/A   Clear